Temperature
18 18 18 19 19 19 19 19 19 19 19 19 19 18 18 19 18 18 18 18 18 19 19 19 18 18 18 18 18 18 18 18 18 18 18 18 18 18 18 18 18 17 17
19 18 19 19 19 19 19 19 19 19 19 19 19 19 19 19 19 18 18 18 19 18 19 19 18 18 18 18 18 18 18 18 18 18 18 18 18 18 18 18 18 17 17
19 19 19 19 19 19 19 19 19 19 19 19 19 19 19 19 19 18 19 19 19 18 18 18 18 18 18 18 18 18 18 18 18 18 18 18 18 18 18 18 17 17 17
19 19 19 19 19 19 19 19 19 19 19 19 19 19 18 18 18 18 18 18 18 18 18 18 18 18 18 18 18 18 18 18 18 18 18 18 18 18 18 17 17 17 17
19 19 19 19 19 19 19 19 19 19 19 19 19 19 18 18 18 18 18 18 18 18 18 18 18 18 18 18 18 18 18 18 18 18 18 18 18 18 18 17 17 17 17
19 19 19 19 19 19 19 19 19 19 19 19 19 18 18 18 18 18 18 18 18 18 18 18 18 18 18 18 18 18 18 18 18 18 18 18 18 18 18 18 17 17 17
19 19 19 19 19 19 19 19 19 19 19 19 19 18 18 18 18 18 18 18 18 18 18 18 18 18 18 18 18 18 18 18 18 18 18 18 18 18 18 18 17 17 17
19 19 19 19 19 19 19 19 19 19 19 19 18 18 18 18 18 18 18 18 18 18 18 18 18 18 18 18 18 18 18 18 18 18 18 18 18 18 18 18 17 17 17
19 19 19 19 19 19 19 19 19 19 19 19 18 18 18 18 18 18 18 18 18 18 18 18 18 18 18 18 18 18 18 18 18 18 18 18 18 18 18 18 18 17 17
19 19 19 19 19 19 19 18 18 18 18 18 18 18 18 18 18 18 18 18 18 18 18 18 18 18 18 18 18 18 18 18 18 18 18 18 18 18 18 18 17 17 17
19 19 19 19 19 19 19 18 18 18 18 18 18 18 18 18 18 18 18 18 18 18 18 18 18 18 18 18 18 18 18 18 18 18 18 18 18 18 18 18 17 17 17
19 19 19 19 19 19 19 19 19 19 18 18 18 18 18 18 18 18 18 18 18 18 18 18 18 18 18 18 18 18 18 18 18 18 18 18 18 18 18 18 18 18 17
19 19 19 19 19 19 19 19 19 19 18 18 18 18 18 18 18 18 18 18 18 18 18 18 18 18 18 18 18 18 18 18 18 18 18 18 18 18 18 18 18 18 17
19 19 19 19 19 19 19 19 19 19 18 18 18 18 18 18 18 18 18 18 18 18 18 18 18 18 18 18 18 18 18 18 18 18 18 18 18 18 18 18 18 17 17
20 19 19 19 19 19 19 19 19 19 19 18 18 18 18 18 18 18 18 18 18 18 18 18 18 18 18 18 18 18 18 18 18 18 18 18 18 18 18 18 18 17 17
20 20 20 19 19 19 19 19 19 19 19 19 18 18 18 18 18 18 18 18 18 18 18 18 18 18 18 18 18 18 18 18 18 18 18 18 18 18 18 18 18 17 17
20 20 20 19 19 19 19 19 19 19 19 19 19 18 18 18 18 18 18 18 18 18 18 18 18 18 18 18 18 18 18 18 18 18 18 18 18 18 18 18 18 17 17
20 20 20 20 19 19 19 19 19 19 19 19 19 19 18 18 18 18 18 18 18 18 18 18 18 18 18 18 18 18 18 18 18 18 18 18 18 18 18 18 18 18 18
20 20 20 20 20 19 19 19 19 19 19 19 19 19 19 19 18 18 18 18 18 18 18 18 18 18 18 18 18 18 18 18 19 19 19 19 18 18 18 18 18 18 18
20 20 20 20 20 19 19 19 19 19 19 19 19 19 19 19 18 18 18 18 18 18 18 18 18 18 18 18 18 18 18 19 19 19 19 19 19 18 18 18 18 18 18
21 20 20 20 20 19 19 19 19 19 19 19 19 19 19 19 19 18 18 18 18 18 18 18 18 18 18 18 18 18 18 19 19 19 19 19 18 18 18 18 18 18 18
21 20 20 20 20 20 19 19 19 19 19 19 19 19 19 19 19 19 18 18 18 18 18 18 18 18 18 18 18 18 18 18 18 19 19 18 18 18 18 18 18 18 18
21 21 20 20 20 20 19 19 19 19 19 19 19 19 19 19 19 19 18 19 18 18 18 18 18 18 18 18 18 18 18 18 18 18 18 18 18 18 18 18 18 18 18
21 21 21 20 20 20 19 19 19 19 19 19 19 19 19 19 19 19 19 19 18 18 18 18 18 18 18 18 18 18 18 18 18 18 18 18 18 18 18 18 18 18 18
21 21 21 20 20 20 20 19 19 19 19 19 19 19 19 19 19 19 19 19 18 18 18 18 18 18 18 18 18 18 18 18 18 17 17 18 18 18 18 18 18 18 18
21 21 21 20 20 20 20 19 19 19 19 19 19 19 19 19 19 19 19 19 18 18 18 18 18 18 18 18 18 18 18 18 18 18 17 18 18 18 18 18 18 18 17
Wind_Speed
1 3 9 11 12 13 14 14 14 15 15 15 16 17 17 16 15 14 14 13 13 12 12 11 11 11 11 11 11 10 10 10 10 10 10 10 10 10 11 11 11 10 12
4 6 10 11 12 13 13 13 14 14 15 15 16 16 16 15 14 14 13 13 12 11 11 11 10 10 10 10 10 9 9 9 9 9 9 9 9 9 10 10 10 9 11
6 7 10 11 12 12 12 13 13 14 14 14 14 14 14 14 13 13 12 12 11 11 10 10 9 9 9 9 8 8 7 7 7 8 8 7 7 8 8 9 10 10 11
7 7 9 11 12 12 12 12 13 13 13 13 13 13 13 13 12 12 11 11 10 9 9 8 8 8 8 8 7 6 6 6 6 6 5 5 5 7 8 8 9 10 10
6 7 8 11 11 11 11 11 12 11 11 11 11 12 12 12 11 11 10 9 9 8 8 7 7 7 6 6 5 5 5 5 5 5 4 4 4 6 7 8 9 9 9
5 6 8 11 10 10 10 10 10 10 10 10 10 10 10 10 10 9 9 8 7 6 6 5 5 5 5 4 4 4 4 4 5 4 3 3 4 6 7 8 8 9 9
5 5 7 10 9 10 10 10 9 9 9 8 8 8 8 8 8 8 7 7 6 5 4 4 4 3 3 3 2 3 3 4 4 4 3 3 4 6 7 7 7 8 8
5 5 6 9 9 9 8 8 8 7 7 7 7 7 6 6 6 6 5 5 4 4 3 3 3 2 2 1 1 2 3 3 3 3 3 3 5 7 7 8 8 7 8
5 4 4 5 7 7 7 7 6 6 6 6 6 5 5 5 5 5 4 4 3 3 2 2 2 1 1 1 0 1 2 3 3 3 3 4 6 7 7 7 7 7 7
3 2 3 3 4 4 4 5 5 5 5 5 5 4 5 4 3 3 3 3 3 3 3 3 2 2 2 2 2 2 1 2 3 3 3 5 6 7 7 7 7 7 8
3 2 2 2 2 2 2 4 4 4 4 4 3 3 3 2 1 1 2 3 3 3 4 3 2 2 3 3 3 2 2 2 3 3 4 6 7 8 8 8 8 8 8
5 4 3 2 2 3 3 2 2 2 2 2 1 1 2 1 1 0 1 2 2 2 2 2 2 2 2 2 3 2 2 3 4 4 5 7 8 9 9 8 8 8 8
6 5 4 4 3 3 2 2 2 1 1 1 1 1 2 1 1 1 2 2 3 2 2 2 2 1 2 2 2 2 3 3 4 5 6 8 9 9 10 9 9 9 9
6 6 5 4 3 3 3 2 2 1 1 1 2 2 1 0 1 1 1 2 2 2 1 2 2 2 2 3 2 2 3 3 4 5 6 8 9 10 10 10 10 10 10
7 7 6 6 5 4 3 2 3 2 2 3 3 3 2 1 1 1 1 2 2 2 1 2 1 2 2 2 2 2 3 4 4 5 6 8 9 10 10 11 11 11 10
8 7 6 6 5 4 3 2 2 3 3 3 3 4 4 3 2 1 1 1 2 2 2 2 2 2 2 2 2 2 3 4 4 5 5 6 9 10 10 10 11 11 10
8 7 7 7 6 5 4 4 3 3 3 3 3 4 3 4 3 2 1 1 3 3 3 2 1 1 1 1 2 2 2 3 4 5 5 5 6 8 9 10 10 10 10
7 7 7 7 7 6 5 4 3 3 3 3 4 4 4 4 4 3 1 2 3 2 2 1 1 1 1 1 2 2 2 2 3 4 5 5 6 6 8 9 10 11 11
8 8 8 6 6 6 5 3 3 2 2 3 3 3 4 4 5 4 2 3 3 1 1 1 1 1 1 1 2 2 2 2 3 3 3 4 5 6 6 7 8 10 11
8 8 8 6 6 5 4 2 1 1 1 2 3 4 5 5 4 4 3 3 2 1 1 1 1 1 1 1 2 2 2 2 2 2 3 3 4 5 6 6 6 7 10
7 8 8 7 6 5 3 3 2 2 2 2 3 5 5 5 4 3 2 1 1 1 1 1 1 0 1 0 0 2 3 2 1 1 2 2 3 4 5 6 6 6 7
9 9 9 9 8 7 5 3 3 2 2 2 2 3 5 5 4 4 3 2 2 2 1 1 1 1 1 0 1 0 2 3 2 1 1 1 2 2 3 5 6 6 7
9 10 10 9 8 7 6 3 2 1 1 1 1 2 3 4 4 3 3 3 2 2 2 2 2 2 1 1 1 2 1 2 2 2 1 1 1 1 2 3 4 6 7
10 9 8 8 7 6 6 5 5 4 4 4 2 2 2 2 2 3 3 3 2 2 3 3 2 2 2 2 1 1 2 2 1 2 2 2 2 2 3 3 3 4 6
8 8 7 6 6 6 6 7 5 4 3 2 1 2 1 1 2 2 2 2 2 3 3 3 2 2 2 2 2 1 1 1 2 2 3 3 2 2 2 2 2 3 5
6 6 6 7 6 6 6 6 6 6 5 3 2 2 2 1 2 1 2 2 2 2 3 3 3 2 2 3 2 2 2 2 2 3 3 3 3 2 2 2 2 2 3
Wind_Direction
124 124 113 108 108 108 108 109 110 111 112 116 122 123 124 124 124 123 120 116 114 113 110 106 106 107 106 105 105 105 106 110 116 118 117 117 120 121 119 116 117 121 122
135 126 119 112 111 109 108 108 111 115 114 116 121 123 125 127 126 125 123 121 117 114 112 111 109 108 105 105 106 106 107 110 117 120 119 117 120 123 127 127 128 130 127
119 121 122 117 113 112 111 110 111 116 115 118 122 125 127 127 128 128 125 122 118 116 113 111 110 108 106 105 104 104 103 107 113 115 109 105 118 130 133 136 137 135 133
122 120 124 122 119 117 114 112 113 115 116 119 122 125 127 128 129 130 128 125 121 119 117 114 112 110 108 106 104 105 106 106 112 111 106 114 125 137 139 140 139 138 139
114 119 131 128 124 122 119 117 116 117 117 121 123 126 129 130 131 133 131 127 126 125 123 118 114 113 112 109 111 114 115 111 110 109 114 124 131 143 145 144 142 142 144
119 127 136 132 129 127 124 122 120 118 118 120 124 129 131 133 136 139 137 133 130 129 129 124 122 122 121 118 119 122 124 121 114 120 127 138 149 156 153 151 150 151 151
126 129 141 138 135 131 128 126 126 124 123 122 126 131 134 136 140 141 141 143 141 140 138 136 135 131 129 127 131 136 134 130 126 134 142 158 172 170 165 162 160 160 160
130 129 142 145 141 137 135 133 132 132 132 133 132 136 139 143 145 147 153 157 158 161 163 160 164 159 151 146 148 156 159 154 142 151 166 178 185 180 177 177 172 169 168
122 124 130 143 144 145 143 142 141 139 140 138 137 142 149 156 157 158 163 170 177 186 196 199 202 198 207 235 257 221 191 175 159 175 188 198 200 192 185 183 182 180 177
115 115 128 127 128 134 147 153 153 150 145 141 142 145 151 157 167 172 180 190 199 205 228 239 245 239 256 260 261 259 224 189 174 194 202 211 211 204 198 194 192 190 187
159 147 136 135 134 137 157 174 169 162 157 152 154 158 137 107 112 151 200 212 222 223 237 248 256 263 274 270 266 255 236 195 206 216 216 217 217 212 206 202 198 197 195
189 193 181 174 173 169 184 179 174 158 150 151 159 138 101 95 87 135 249 243 247 254 260 270 283 294 301 295 283 267 229 221 217 222 225 223 222 216 210 208 204 201 201
191 194 191 188 188 185 194 180 175 152 147 164 183 154 132 102 7 356 355 343 348 2 3 347 331 311 285 278 287 274 244 236 229 229 232 228 223 221 217 215 211 207 208
187 199 197 187 188 199 199 189 181 180 191 215 234 223 169 160 303 315 323 326 342 340 344 335 327 305 287 277 271 264 250 241 234 233 236 232 225 223 222 219 216 213 214
192 199 199 191 189 195 193 195 185 199 211 226 241 244 219 212 244 286 303 310 318 322 313 303 287 284 286 293 280 251 240 235 235 238 241 238 229 226 224 222 219 219 220
196 199 195 193 194 192 196 195 198 210 211 221 236 239 231 225 233 234 272 306 303 296 282 276 275 275 286 285 284 272 252 239 233 235 240 243 235 228 226 223 219 219 219
195 194 194 196 192 192 199 201 205 215 211 222 238 244 235 226 225 227 243 264 276 279 272 278 298 313 294 294 294 284 262 242 237 232 234 236 235 232 227 228 224 220 221
187 188 197 200 190 193 193 191 198 205 205 222 232 235 232 229 224 213 216 250 265 267 255 253 276 298 293 296 299 299 285 254 249 240 231 230 230 232 231 230 226 226 228
189 187 191 197 187 187 187 184 188 193 205 219 225 233 238 236 226 205 208 236 243 235 238 240 232 225 267 291 290 286 285 266 259 251 236 234 232 233 234 238 236 234 234
186 185 187 191 186 174 167 159 162 189 233 231 227 234 243 242 236 216 219 235 217 207 235 227 242 250 246 265 298 309 303 285 266 260 248 236 231 232 232 231 235 238 238
182 182 187 188 186 168 162 170 179 215 223 234 234 236 242 242 235 216 227 220 195 206 230 231 213 260 304 270 24 334 332 332 314 266 248 238 236 234 228 224 224 229 236
188 189 189 194 189 185 180 171 174 187 212 220 234 241 243 239 229 219 206 211 199 203 226 222 183 184 275 134 146 56 345 349 350 339 305 251 250 233 232 234 227 227 233
195 198 199 197 194 192 179 149 133 103 16 278 249 244 242 236 231 225 210 203 204 199 218 227 204 194 223 248 173 168 169 255 304 326 321 306 286 260 253 246 236 232 233
205 200 195 192 193 191 176 173 177 192 219 229 230 243 256 243 237 227 217 209 210 212 223 236 217 206 203 235 222 206 202 193 210 308 318 312 302 280 278 273 261 245 239
192 189 187 182 189 187 181 182 184 207 220 223 216 239 264 285 258 232 218 214 214 217 221 222 219 214 215 224 217 202 197 204 208 213 283 309 319 296 287 275 272 262 252
175 172 173 177 192 190 184 184 187 197 197 192 216 224 251 268 279 270 223 224 221 217 223 221 213 208 218 222 216 204 192 196 202 200 234 266 285 287 286 271 264 269 268
Height
1521 1521 1522 1523 1524 1524 1525 1526 1527 1528 1528 1529 1530 1532 1534 1535 1537 1539 1540 1541 1543 1544 1545 1546 1547 1548 1549 1550 1551 1552 1552 1553 1554 1555 1555 1556 1557 1557 1558 1558 1559 1560 1560
1522 1523 1524 1525 1526 1527 1528 1528 1529 1530 1531 1532 1533 1534 1536 1537 1539 1540 1542 1543 1544 1546 1547 1548 1549 1550 1551 1552 1552 1553 1554 1555 1555 1556 1557 1557 1558 1558 1559 1559 1560 1561 1561
1524 1525 1526 1527 1528 1529 1530 1531 1531 1532 1533 1534 1535 1537 1538 1540 1541 1542 1543 1545 1546 1547 1548 1549 1550 1551 1552 1553 1554 1555 1555 1556 1557 1557 1558 1558 1559 1559 1560 1561 1561 1562 1563
1525 1527 1528 1530 1531 1532 1533 1533 1534 1535 1536 1537 1538 1539 1540 1541 1543 1544 1545 1546 1547 1548 1549 1550 1552 1553 1553 1554 1555 1556 1557 1557 1558 1559 1559 1560 1560 1560 1561 1562 1562 1563 1563
1527 1529 1530 1532 1533 1534 1535 1536 1537 1537 1538 1539 1540 1541 1542 1543 1544 1546 1547 1548 1549 1550 1551 1552 1553 1554 1555 1555 1556 1557 1558 1558 1559 1560 1560 1560 1561 1561 1562 1562 1563 1563 1564
1529 1531 1532 1534 1535 1536 1537 1538 1539 1540 1541 1541 1542 1543 1544 1545 1546 1547 1548 1549 1550 1551 1552 1553 1554 1555 1556 1556 1557 1558 1559 1559 1560 1561 1561 1561 1562 1562 1563 1563 1564 1564 1565
1531 1533 1534 1536 1537 1538 1539 1540 1541 1542 1542 1543 1544 1545 1546 1547 1548 1549 1549 1550 1551 1552 1553 1554 1554 1555 1556 1557 1558 1559 1560 1560 1561 1561 1562 1562 1562 1563 1563 1564 1564 1565 1565
1533 1534 1536 1538 1539 1540 1541 1542 1543 1544 1544 1545 1546 1547 1547 1548 1549 1550 1551 1551 1552 1553 1554 1554 1555 1556 1557 1558 1559 1559 1560 1561 1561 1562 1562 1563 1563 1563 1564 1564 1564 1565 1565
1535 1536 1538 1539 1541 1542 1543 1544 1545 1545 1546 1547 1547 1548 1549 1550 1550 1551 1552 1552 1553 1554 1555 1555 1556 1556 1557 1558 1559 1560 1561 1561 1562 1562 1563 1563 1563 1564 1564 1564 1564 1565 1566
1536 1538 1539 1540 1542 1543 1544 1545 1546 1547 1547 1548 1549 1549 1550 1551 1552 1552 1553 1553 1554 1555 1555 1556 1556 1557 1558 1559 1559 1560 1561 1562 1562 1562 1563 1563 1563 1563 1564 1564 1564 1565 1565
1537 1539 1540 1542 1543 1544 1546 1547 1548 1548 1549 1549 1550 1550 1551 1552 1552 1553 1553 1554 1555 1555 1556 1556 1557 1557 1558 1559 1559 1560 1561 1561 1562 1562 1562 1563 1563 1563 1563 1564 1564 1565 1565
1537 1539 1541 1543 1544 1546 1547 1548 1549 1550 1550 1550 1551 1551 1552 1553 1553 1554 1554 1555 1555 1556 1556 1556 1557 1557 1558 1559 1559 1560 1560 1561 1561 1562 1562 1562 1562 1563 1563 1563 1564 1564 1565
1538 1540 1542 1543 1545 1547 1548 1549 1550 1551 1551 1552 1552 1552 1553 1553 1554 1555 1555 1555 1556 1556 1556 1557 1557 1557 1558 1558 1559 1559 1559 1560 1560 1561 1561 1562 1562 1562 1562 1563 1563 1564 1564
1538 1540 1542 1544 1546 1547 1548 1550 1551 1551 1552 1552 1553 1553 1554 1554 1555 1555 1556 1556 1556 1557 1557 1557 1557 1557 1558 1558 1558 1558 1559 1559 1559 1560 1560 1561 1561 1561 1561 1561 1562 1563 1563
1537 1540 1542 1544 1546 1548 1549 1550 1551 1552 1553 1553 1554 1554 1554 1555 1555 1556 1556 1557 1557 1557 1557 1557 1557 1557 1557 1558 1558 1558 1558 1558 1559 1559 1559 1560 1560 1560 1560 1561 1561 1561 1562
1538 1540 1542 1544 1546 1548 1549 1550 1551 1552 1553 1554 1554 1555 1555 1555 1556 1556 1556 1557 1556 1556 1556 1557 1557 1557 1557 1557 1557 1557 1557 1557 1557 1558 1558 1559 1559 1559 1559 1559 1560 1560 1560
1538 1540 1542 1544 1546 1548 1549 1551 1552 1553 1553 1554 1555 1555 1555 1556 1556 1556 1556 1556 1556 1556 1556 1556 1557 1557 1556 1556 1556 1556 1556 1556 1556 1557 1557 1557 1558 1558 1558 1558 1558 1558 1558
1538 1540 1542 1544 1545 1547 1549 1550 1552 1553 1553 1554 1555 1555 1555 1556 1556 1556 1556 1556 1556 1556 1556 1556 1556 1556 1556 1555 1555 1555 1555 1555 1555 1556 1556 1556 1556 1557 1557 1556 1557 1557 1557
1537 1539 1541 1543 1545 1546 1548 1550 1551 1552 1553 1554 1554 1555 1555 1555 1555 1556 1555 1555 1555 1555 1555 1555 1555 1555 1555 1554 1554 1554 1554 1554 1554 1554 1555 1555 1555 1555 1555 1555 1555 1555 1555
1536 1538 1540 1542 1544 1546 1547 1549 1550 1551 1552 1553 1553 1554 1554 1555 1555 1555 1555 1555 1554 1554 1554 1554 1554 1554 1554 1553 1553 1553 1553 1553 1553 1553 1553 1553 1553 1553 1553 1553 1553 1553 1553
1534 1536 1539 1540 1542 1544 1545 1547 1548 1549 1551 1551 1552 1553 1553 1553 1554 1554 1554 1553 1553 1553 1553 1553 1553 1553 1553 1552 1552 1552 1552 1551 1551 1551 1551 1551 1551 1551 1551 1551 1551 1550 1550
1533 1535 1537 1538 1540 1542 1543 1545 1547 1548 1549 1550 1551 1551 1551 1552 1552 1552 1552 1552 1552 1552 1552 1552 1552 1551 1551 1551 1551 1550 1550 1551 1550 1550 1550 1550 1550 1549 1549 1549 1548 1548 1548
1530 1532 1534 1536 1538 1540 1542 1544 1545 1546 1547 1548 1549 1549 1549 1550 1550 1550 1550 1550 1550 1550 1550 1550 1550 1550 1549 1550 1550 1550 1549 1548 1548 1548 1548 1548 1548 1547 1547 1547 1546 1546 1546
1527 1530 1533 1534 1536 1538 1540 1542 1543 1544 1544 1545 1546 1547 1548 1548 1548 1548 1548 1548 1548 1548 1548 1548 1548 1547 1548 1547 1547 1547 1548 1547 1547 1546 1547 1546 1546 1545 1545 1544 1544 1543 1543
1525 1528 1530 1532 1534 1536 1537 1539 1540 1541 1542 1543 1544 1545 1545 1545 1546 1546 1546 1546 1546 1546 1546 1545 1545 1545 1545 1545 1545 1545 1545 1545 1545 1545 1544 1544 1544 1543 1543 1542 1542 1541 1541
1523 1525 1527 1529 1532 1533 1535 1537 1538 1539 1540 1541 1542 1542 1543 1543 1543 1543 1543 1544 1543 1543 1543 1543 1543 1543 1543 1543 1543 1543 1543 1543 1543 1543 1542 1541 1541 1541 1540 1540 1540 1539 1538